Wind_Speed
6 6 6 7 7 8 9 9 9 9 9 8 7 7 7 6 5 5 5 6 8 8 8 8 9 9 11 13 15 16 16 17 17 18 18 18 18 17 16 14 12 10 9 8 6 4 3 2 2
6 6 5 6 6 7 7 7 8 8 8 7 7 7 7 7 5 4 4 5 6 7 6 6 7 7 8 10 11 13 14 15 15 16 16 17 17 17 17 16 15 13 11 10 8 7 5 3 2
5 5 6 7 7 6 5 5 5 6 6 6 6 6 6 7 5 3 3 3 5 5 5 4 4 5 6 7 8 10 11 12 13 13 14 15 16 16 16 17 16 16 14 12 10 9 7 4 3
3 4 6 7 7 6 5 4 3 4 4 5 5 6 6 7 5 3 3 3 4 4 4 3 2 2 3 4 5 6 8 9 10 10 11 11 13 14 14 15 16 16 16 14 12 10 9 7 5
1 2 4 5 5 6 5 4 3 3 5 5 5 5 6 6 5 2 3 4 4 4 3 2 2 1 1 0 1 2 4 5 7 7 8 8 9 10 11 12 14 14 15 14 14 12 11 9 8
2 2 2 4 4 5 5 5 3 3 3 4 4 5 6 6 4 2 2 3 4 4 3 3 2 2 3 2 3 3 3 4 5 5 6 6 6 6 8 9 10 11 12 13 13 12 12 11 9
6 6 6 6 6 6 5 4 2 1 1 2 4 4 4 4 4 2 0 2 3 4 4 4 4 4 4 5 5 5 5 5 5 5 5 5 5 5 5 6 7 8 8 9 10 11 11 10 9
8 8 8 9 8 7 7 5 3 3 3 4 5 6 5 4 3 3 2 2 3 4 5 5 6 6 6 7 7 7 7 7 7 7 7 6 6 5 5 4 5 5 5 6 6 7 8 8 7
9 10 10 10 11 11 11 9 7 7 7 7 8 9 9 8 7 5 5 4 4 5 5 6 6 7 8 8 9 9 9 9 9 9 9 8 8 7 6 5 5 5 5 4 4 4 4 4 5
10 10 11 12 13 15 15 14 13 12 11 11 10 11 12 12 11 10 10 9 8 7 7 7 7 8 9 9 10 10 11 11 11 11 11 10 10 10 10 9 8 7 7 6 6 4 4 4 4
10 11 13 15 17 18 18 18 17 18 17 17 16 15 14 14 14 14 14 14 14 12 11 11 10 10 11 11 11 11 12 12 12 12 13 13 13 13 13 13 12 11 10 9 8 7 6 6 6
13 14 15 18 19 21 22 22 22 22 22 22 21 19 18 18 18 18 18 18 18 17 16 16 15 14 14 14 13 13 13 13 13 14 14 15 15 15 15 16 15 14 13 12 11 10 9 9 9
17 17 18 20 22 23 24 25 25 26 26 25 24 23 21 21 21 22 23 22 22 21 20 20 19 19 18 17 16 16 16 15 15 15 16 16 16 16 17 18 18 18 17 16 15 14 13 13 12
20 21 22 23 24 26 27 28 29 29 28 28 28 27 26 26 26 26 26 26 26 25 25 24 23 23 23 22 21 20 19 18 18 17 17 17 18 18 19 19 20 20 20 19 19 19 17 16 16
24 25 26 25 26 28 29 31 31 32 32 31 32 32 31 31 31 31 31 31 30 30 30 29 28 27 26 25 25 25 24 23 21 20 20 20 20 20 21 21 22 22 22 22 22 22 21 20 20
26 27 28 28 29 30 32 33 34 35 35 35 36 36 36 36 36 37 36 36 36 36 35 34 34 33 31 29 28 27 27 26 26 24 23 23 22 23 24 24 25 25 25 25 25 25 24 23 22
27 28 29 30 31 33 34 35 36 36 36 36 37 38 39 40 40 41 42 42 41 41 40 39 39 38 37 35 34 32 30 29 28 28 26 26 25 26 27 28 28 28 28 28 28 27 26 25 23
28 29 30 30 31 32 33 34 34 34 35 35 36 38 40 41 43 44 46 47 46 45 45 44 43 42 41 40 39 37 35 34 31 30 28 29 29 29 30 30 31 31 31 30 30 30 29 28 26
26 26 27 27 27 28 29 30 31 32 33 34 35 37 39 41 43 45 47 49 49 49 49 48 47 47 46 44 43 41 39 38 37 35 34 33 32 32 33 33 33 33 34 33 32 31 31 30 29
22 22 23 24 24 25 27 28 30 31 32 34 36 39 41 42 44 45 48 50 51 51 51 52 51 49 48 47 46 45 43 41 40 39 38 37 36 35 35 35 36 35 35 35 34 33 32 32 31
19 21 21 22 23 24 26 27 28 30 33 35 38 40 42 42 43 45 47 48 49 50 51 51 51 51 50 49 47 46 44 43 42 42 42 41 40 39 38 36 35 35 34 34 34 35 34 32 32
18 19 20 21 23 25 25 27 26 29 32 34 37 39 40 40 40 41 44 45 46 47 49 49 49 49 49 48 47 46 44 43 43 43 43 43 43 42 40 39 37 36 34 32 33 33 33 34 33
17 18 19 20 21 22 22 24 25 26 28 31 33 34 34 35 35 36 37 38 39 41 42 43 44 44 44 45 45 44 43 42 42 42 42 42 42 42 41 39 37 34 32 29 29 29 29 30 33
15 16 17 18 19 19 20 22 22 22 23 25 26 28 29 29 29 30 30 30 30 30 31 33 35 37 39 40 41 42 41 40 39 39 39 39 39 39 38 35 33 31 28 27 27 27 27 28 31
14 15 15 15 15 16 17 18 19 19 21 22 22 22 22 23 24 24 23 21 21 21 21 23 26 29 32 34 36 37 37 37 37 36 35 35 34 34 33 32 31 30 30 29 29 28 28 29 31
12 12 12 13 13 13 14 15 17 18 20 21 22 21 20 20 20 18 16 14 13 13 13 14 17 21 25 28 30 31 32 32 32 32 31 31 32 32 32 31 31 32 32 32 32 30 30 31 32
10 10 10 10 11 11 12 14 16 18 19 20 21 21 20 19 19 18 15 13 10 8 8 8 10 14 17 20 22 24 26 27 27 28 29 30 31 32 33 34 35 36 36 36 35 33 32 32 32
10 10 9 8 9 10 12 14 16 17 18 19 20 21 21 21 22 19 15 12 11 8 6 6 6 7 9 12 16 19 21 22 23 25 27 29 31 33 34 36 37 38 37 37 36 35 34 33 33
11 10 9 8 9 11 13 15 16 16 18 19 20 21 21 21 22 20 18 15 13 11 9 8 6 4 2 4 7 10 12 15 18 20 22 25 28 30 31 32 33 34 34 34 34 34 33 33 33
13 12 11 10 12 13 14 15 16 17 19 20 21 21 21 21 21 21 20 18 16 15 14 12 10 9 8 6 3 1 2 4 7 10 13 15 17 19 21 23 24 25 26 27 28 29 30 31 32
Wind_Direction
38 34 34 39 44 38 30 27 31 41 47 54 60 62 61 58 62 78 84 92 98 98 93 87 85 85 85 83 82 79 76 72 68 64 61 60 60 57 54 51 49 46 42 39 38 41 54 85 150
41 41 45 39 37 27 23 21 30 41 41 38 38 42 47 49 57 76 92 96 104 105 101 94 88 88 87 84 80 77 74 70 66 61 56 55 55 54 52 49 46 44 41 38 36 38 48 69 111
56 60 56 49 42 25 20 25 31 44 44 35 26 29 37 38 44 70 110 112 113 113 112 109 99 93 91 86 77 73 71 67 62 58 52 50 49 48 47 46 45 44 42 41 41 43 51 66 99
75 75 61 50 38 33 34 39 42 45 49 39 26 24 30 30 36 63 125 140 131 124 125 131 133 114 98 88 77 67 59 54 51 49 45 41 41 41 41 41 42 43 45 45 46 49 54 66 85
70 54 55 43 23 26 42 54 53 42 45 38 29 28 29 33 34 69 134 159 157 149 146 156 176 195 209 44 35 34 28 25 26 28 29 28 26 29 33 35 37 41 45 46 47 51 56 63 74
304 319 360 11 13 14 37 58 66 56 43 28 21 27 29 31 27 47 145 172 179 174 172 180 200 220 238 258 273 286 305 327 339 349 359 7 8 10 17 22 27 34 41 46 47 51 57 62 68
303 315 323 335 351 4 15 32 68 58 5 345 342 347 1 14 19 7 208 191 199 198 195 200 211 225 236 245 255 266 273 282 293 306 318 331 340 347 357 5 12 20 29 38 44 48 52 58 62
297 306 311 316 324 327 333 331 310 279 287 292 300 304 306 314 330 330 306 254 229 221 217 216 220 227 232 236 244 254 264 271 277 283 289 297 308 318 331 344 352 356 4 17 29 38 44 48 51
288 294 302 302 306 304 304 300 291 282 282 280 285 287 286 287 289 289 285 275 259 245 238 234 235 238 240 240 241 245 253 261 268 273 277 281 287 293 300 309 318 326 327 330 342 1 14 20 24
279 282 284 283 284 289 291 291 292 288 289 284 279 277 280 280 280 280 275 269 265 260 257 253 251 250 249 248 248 249 251 256 262 267 271 274 277 281 285 290 295 300 305 304 300 302 314 319 321
276 277 275 275 276 279 281 285 288 288 289 289 282 276 274 274 273 274 276 274 270 266 263 262 260 259 257 254 253 253 254 256 260 266 270 271 272 274 277 279 283 286 288 290 289 285 286 290 291
276 277 275 274 275 277 279 281 282 283 285 285 283 279 275 270 268 269 270 272 272 269 265 262 261 260 257 255 253 254 255 257 260 264 269 273 273 273 274 275 275 276 277 278 279 279 279 280 279
277 280 279 279 278 278 279 280 279 280 281 281 280 279 276 271 265 263 264 265 264 264 263 261 258 256 253 250 248 249 252 254 257 261 266 270 274 275 275 275 274 273 272 271 272 273 275 277 278
280 281 280 279 278 278 277 276 276 278 278 279 279 277 275 271 268 264 261 260 258 256 255 254 253 252 249 245 244 244 245 248 252 256 261 265 270 273 275 275 275 274 273 271 269 269 271 274 277
280 280 279 278 276 275 274 273 274 276 277 277 277 276 273 271 268 266 263 260 257 255 253 250 250 250 252 249 246 243 242 243 246 252 257 262 265 268 271 273 274 274 274 273 271 270 270 271 273
278 279 279 279 277 276 276 276 276 277 277 277 276 274 271 269 268 266 264 262 259 257 254 251 250 250 250 250 248 247 245 245 245 247 252 257 262 266 268 270 272 273 274 274 273 272 271 271 271
278 279 280 280 280 281 281 281 282 282 281 279 277 276 273 270 268 267 265 263 260 258 255 253 251 251 251 250 250 250 249 250 249 248 250 255 260 265 267 268 269 270 271 271 271 271 271 271 270
283 285 285 286 285 285 285 285 285 284 283 281 279 276 275 273 271 269 268 265 262 259 256 254 253 252 251 250 250 251 251 252 254 254 255 256 259 263 266 269 270 270 270 270 270 270 270 270 268
287 288 288 288 288 288 288 288 288 287 285 283 281 279 278 276 274 271 270 268 264 262 259 256 254 252 250 250 251 251 252 254 255 257 257 258 260 263 265 267 269 271 270 270 269 268 267 266 266
288 289 289 289 290 290 290 290 290 289 288 286 285 284 281 280 278 276 273 270 267 265 263 260 256 253 250 249 249 250 251 253 254 257 259 259 260 263 265 267 267 269 269 268 266 264 263 263 263
289 291 292 292 293 293 293 293 293 291 290 289 288 287 285 283 279 277 274 271 269 266 263 262 258 254 251 250 249 249 250 251 252 253 255 257 258 260 262 265 266 267 268 266 264 261 257 259 259
295 296 294 293 295 297 299 297 297 295 294 293 293 292 290 287 285 282 278 276 272 269 265 263 261 259 256 253 251 250 250 250 251 252 253 255 257 258 261 263 266 266 270 267 264 261 257 255 255
299 298 297 298 298 299 302 301 304 302 302 301 300 300 297 295 293 290 285 281 277 273 268 265 261 260 258 256 254 253 253 252 252 253 254 255 257 259 261 262 265 266 270 272 267 263 261 259 255
302 303 303 302 302 303 306 307 311 311 310 310 310 308 306 305 302 299 295 290 284 278 269 263 259 257 256 255 254 253 253 254 254 254 255 255 257 257 259 260 263 267 274 276 277 275 273 267 257
306 307 308 309 309 311 313 318 324 324 324 326 327 323 322 322 319 317 309 300 291 283 274 266 258 255 253 252 251 251 252 254 255 255 255 255 255 255 256 258 264 270 274 279 281 280 279 274 263
318 315 317 319 322 325 328 333 337 338 340 343 345 345 342 340 339 336 333 324 308 296 285 273 264 259 256 253 252 253 253 254 256 256 255 253 252 252 255 259 265 271 275 279 280 278 277 273 265
333 330 329 330 333 337 341 347 351 354 358 2 5 6 5 1 357 357 354 356 349 329 318 307 284 270 261 256 255 254 255 255 256 256 256 255 254 255 259 263 268 272 274 277 277 275 274 271 264
350 347 345 343 348 356 1 4 6 8 10 13 16 19 22 22 23 23 22 21 20 13 3 343 314 296 273 262 258 256 257 258 257 258 259 260 260 261 265 268 270 272 274 274 272 270 268 266 261
10 8 6 7 15 18 16 17 18 20 19 19 19 19 24 27 28 33 39 39 38 35 32 28 32 27 328 275 262 260 260 261 262 264 265 266 266 268 270 272 273 273 272 270 268 266 264 261 259
29 31 31 33 30 26 26 26 26 24 22 21 23 26 29 30 33 37 41 44 48 52 54 55 55 58 60 61 55 48 271 266 268 270 271 272 273 275 275 274 274 273 271 269 266 264 261 260 258
Height
5915 5915 5915 5916 5917 5916 5915 5915 5915 5914 5914 5914 5914 5914 5914 5915 5916 5918 5916 5914 5914 5914 5914 5914 5915 5914 5914 5913 5912 5912 5911 5911 5910 5910 5909 5909 5908 5907 5907 5906 5905 5905 5904 5903 5903 5902 5903 5903 5903
5916 5916 5917 5917 5916 5916 5917 5916 5915 5915 5915 5914 5914 5915 5915 5916 5916 5916 5915 5915 5915 5915 5915 5916 5916 5916 5916 5915 5915 5914 5914 5913 5913 5912 5912 5911 5910 5909 5909 5908 5907 5906 5905 5905 5904 5903 5903 5903 5903
5918 5918 5918 5917 5917 5917 5918 5917 5916 5916 5916 5915 5915 5916 5916 5916 5916 5915 5916 5916 5916 5916 5916 5917 5917 5917 5917 5917 5916 5916 5916 5916 5915 5915 5914 5913 5913 5912 5911 5910 5909 5908 5907 5906 5905 5904 5904 5904 5904
5919 5919 5919 5919 5918 5918 5918 5918 5917 5917 5917 5916 5916 5916 5916 5916 5916 5916 5916 5916 5916 5917 5917 5917 5917 5917 5917 5918 5917 5917 5917 5917 5917 5916 5916 5916 5915 5914 5914 5913 5912 5910 5909 5908 5907 5906 5906 5905 5905
5920 5920 5920 5919 5919 5919 5919 5919 5919 5918 5918 5917 5917 5916 5916 5917 5916 5915 5915 5916 5916 5917 5917 5917 5918 5918 5918 5918 5918 5918 5918 5918 5917 5917 5917 5917 5917 5916 5916 5915 5914 5913 5912 5911 5910 5909 5908 5907 5907
5920 5920 5920 5920 5921 5921 5920 5920 5920 5919 5918 5918 5917 5917 5917 5917 5917 5916 5915 5916 5916 5916 5917 5917 5917 5918 5918 5918 5918 5917 5918 5918 5918 5918 5917 5917 5917 5917 5917 5917 5916 5915 5914 5913 5912 5912 5911 5910 5909
5921 5920 5920 5921 5921 5921 5921 5921 5920 5920 5919 5919 5918 5918 5917 5917 5917 5917 5916 5916 5916 5916 5916 5916 5916 5916 5917 5917 5917 5917 5917 5917 5917 5917 5917 5917 5917 5917 5917 5917 5917 5916 5916 5915 5915 5914 5913 5912 5912
5921 5921 5919 5920 5920 5921 5921 5921 5920 5920 5920 5919 5918 5917 5917 5918 5917 5916 5916 5915 5915 5915 5915 5915 5915 5915 5915 5915 5915 5915 5915 5915 5915 5916 5916 5916 5916 5916 5916 5916 5916 5916 5916 5916 5916 5916 5915 5915 5914
5920 5921 5919 5919 5919 5919 5918 5919 5919 5919 5919 5918 5918 5917 5916 5916 5916 5916 5915 5915 5915 5914 5914 5913 5913 5913 5912 5912 5912 5913 5913 5913 5913 5913 5914 5914 5914 5914 5915 5915 5915 5915 5916 5916 5916 5916 5916 5916 5915
5919 5919 5918 5918 5917 5916 5916 5916 5917 5917 5917 5917 5917 5916 5914 5914 5914 5914 5914 5913 5913 5913 5912 5912 5911 5911 5910 5910 5910 5910 5910 5911 5911 5911 5911 5912 5912 5912 5913 5913 5913 5914 5914 5914 5915 5915 5915 5915 5915
5917 5917 5916 5915 5914 5914 5914 5914 5914 5914 5914 5914 5913 5913 5913 5912 5911 5911 5911 5910 5910 5910 5910 5909 5909 5909 5908 5908 5908 5908 5908 5908 5908 5908 5908 5909 5909 5909 5910 5910 5911 5911 5912 5912 5912 5913 5913 5913 5914
5915 5914 5914 5913 5912 5912 5911 5911 5911 5910 5910 5909 5909 5909 5910 5910 5909 5908 5907 5907 5906 5906 5906 5905 5905 5905 5905 5905 5905 5905 5905 5905 5905 5905 5905 5905 5906 5906 5906 5907 5907 5908 5908 5909 5909 5910 5910 5910 5911
5913 5912 5911 5910 5909 5908 5907 5907 5907 5906 5906 5905 5905 5905 5905 5905 5905 5905 5904 5903 5902 5901 5901 5901 5900 5900 5901 5901 5901 5901 5901 5901 5901 5901 5901 5901 5902 5902 5903 5903 5903 5904 5904 5905 5906 5906 5907 5907 5907
5909 5908 5908 5907 5905 5904 5903 5902 5902 5901 5901 5900 5900 5899 5899 5899 5899 5899 5899 5898 5897 5896 5896 5895 5895 5894 5894 5895 5895 5896 5896 5897 5897 5897 5897 5897 5897 5898 5898 5899 5899 5899 5900 5900 5901 5902 5903 5903 5904
5904 5904 5903 5902 5901 5899 5898 5897 5896 5895 5895 5895 5894 5894 5893 5892 5892 5892 5892 5891 5891 5891 5890 5889 5889 5888 5888 5888 5889 5889 5890 5891 5891 5892 5892 5892 5893 5893 5893 5894 5894 5895 5895 5895 5896 5896 5898 5899 5899
5900 5899 5898 5897 5895 5893 5893 5891 5890 5889 5889 5888 5887 5886 5885 5884 5883 5883 5883 5883 5883 5883 5883 5883 5882 5882 5882 5882 5882 5882 5882 5883 5884 5885 5886 5887 5887 5888 5888 5888 5889 5889 5890 5890 5891 5891 5892 5893 5894
5895 5894 5892 5891 5889 5887 5886 5884 5883 5882 5881 5880 5878 5877 5876 5875 5874 5873 5872 5872 5872 5873 5873 5873 5874 5874 5874 5874 5875 5875 5875 5876 5877 5878 5880 5881 5882 5882 5882 5882 5883 5883 5884 5885 5885 5885 5886 5887 5888
5890 5888 5886 5885 5883 5882 5879 5877 5876 5875 5873 5871 5869 5868 5866 5864 5863 5861 5860 5860 5860 5860 5861 5861 5863 5864 5865 5865 5866 5867 5869 5870 5870 5871 5873 5874 5875 5876 5876 5876 5876 5877 5877 5878 5879 5879 5880 5881 5882
5885 5883 5881 5879 5877 5875 5873 5871 5869 5867 5865 5863 5860 5858 5856 5854 5851 5849 5848 5846 5846 5846 5847 5848 5850 5852 5854 5855 5857 5859 5861 5862 5864 5865 5866 5867 5868 5869 5869 5870 5870 5870 5870 5871 5872 5872 5873 5874 5875
5880 5878 5876 5873 5872 5870 5867 5865 5863 5860 5857 5854 5851 5848 5845 5842 5840 5837 5835 5833 5832 5831 5832 5833 5836 5838 5841 5844 5846 5849 5851 5854 5856 5857 5858 5859 5860 5861 5862 5862 5862 5863 5863 5863 5863 5864 5865 5866 5868
5875 5873 5871 5868 5866 5864 5862 5859 5857 5853 5849 5846 5842 5838 5834 5831 5828 5825 5821 5819 5817 5817 5817 5818 5821 5824 5828 5831 5835 5838 5841 5844 5847 5848 5850 5851 5852 5853 5854 5855 5855 5855 5855 5855 5855 5856 5857 5859 5860
5871 5868 5866 5863 5861 5858 5857 5853 5850 5846 5842 5838 5833 5828 5823 5820 5816 5812 5808 5805 5804 5803 5803 5804 5807 5811 5815 5819 5823 5827 5831 5834 5837 5839 5840 5842 5843 5845 5846 5847 5848 5848 5848 5848 5848 5849 5850 5851 5852
5866 5864 5861 5859 5856 5853 5851 5847 5845 5840 5836 5831 5825 5819 5814 5810 5805 5800 5796 5793 5791 5790 5790 5792 5795 5799 5803 5808 5812 5816 5820 5824 5827 5829 5831 5833 5834 5836 5838 5839 5840 5841 5840 5840 5840 5841 5842 5842 5844
5862 5860 5858 5855 5852 5850 5846 5843 5840 5836 5831 5826 5820 5813 5807 5802 5797 5792 5786 5783 5781 5780 5779 5781 5784 5788 5792 5796 5801 5806 5810 5813 5817 5819 5822 5824 5826 5828 5829 5830 5832 5833 5833 5833 5834 5834 5834 5834 5835
5859 5858 5855 5852 5849 5847 5843 5840 5837 5831 5826 5821 5815 5809 5803 5797 5791 5785 5780 5776 5774 5773 5773 5774 5776 5779 5783 5787 5791 5795 5800 5804 5807 5810 5813 5815 5817 5819 5821 5823 5824 5825 5826 5826 5826 5826 5826 5826 5827
5856 5855 5853 5850 5847 5844 5841 5837 5834 5829 5823 5817 5811 5805 5800 5794 5789 5782 5777 5774 5771 5770 5769 5769 5771 5773 5776 5779 5783 5787 5791 5795 5799 5802 5804 5807 5809 5811 5813 5815 5816 5817 5818 5818 5818 5818 5818 5818 5819
5855 5852 5851 5849 5845 5843 5840 5837 5832 5827 5821 5816 5811 5805 5799 5793 5788 5782 5777 5773 5771 5770 5769 5768 5769 5770 5772 5774 5777 5781 5784 5788 5791 5794 5797 5799 5801 5803 5805 5807 5808 5809 5809 5809 5809 5809 5810 5810 5810
5855 5852 5850 5848 5845 5842 5840 5836 5832 5827 5822 5817 5812 5806 5800 5794 5789 5783 5778 5775 5773 5771 5770 5769 5768 5768 5769 5771 5773 5776 5779 5782 5784 5787 5790 5792 5794 5795 5796 5797 5798 5798 5798 5799 5799 5799 5800 5800 5801
5855 5853 5850 5848 5845 5843 5839 5838 5833 5828 5823 5818 5813 5808 5803 5797 5792 5787 5782 5779 5776 5773 5771 5770 5768 5768 5768 5769 5770 5772 5774 5777 5779 5781 5782 5784 5785 5786 5787 5787 5787 5787 5787 5788 5788 5789 5790 5790 5792
5857 5854 5852 5850 5846 5843 5840 5840 5834 5829 5825 5820 5815 5810 5805 5800 5796 5791 5787 5783 5780 5777 5775 5773 5771 5770 5770 5769 5770 5771 5772 5773 5775 5776 5776 5777 5778 5778 5778 5778 5778 5778 5778 5778 5778 5779 5780 5781 5782